sat.trackr.live / text

‹ back to catalog

WILDFIRE 7

NORAD 57761 · 2023-133E

PAYLOAD ACTIVE UNKNOWN

§ Identity

Operator
Country
US
Launch date
2023-09-02
Launch site
AFWTR
Launch vehicle
Mass (kg)
RCS (m²)

External: N2YO · Heavens-Above · Gunter

§ Orbital elements

Epoch: 2026-09-21T19:00:11.897568Z

Period
103.96 min
Inclination
80.9953°
Eccentricity
0.0006279
Mean motion
13.85113351 rev/d
Perigee alt
941.2 km
Apogee alt
950.4 km
Semi-major
7,323.9 km
B*
4.5171e-5
RAAN
275.2381°
Arg perigee
127.4900°
Mean anomaly
232.6828°
Rev number
15,436

§ Raw data

WILDFIRE 71 57761U 23133E   26264.79180437  .00000062  00000+0  45171-4 0  99962 57761  80.9953 275.2381 0006279 127.4900 232.6828 13.85113351154368

JSON: /api/v1/satellites/57761 · /tle

For live sub-satellite position, see the globe view (requires WebGL).

§ Visibility from observer

Set your observer location to see the next 7 days of passes ≥ 10°. The values pass through the URL so the page stays shareable.

No JS? Fill the form by hand. The geolocation button needs JavaScript.